User: anonymous   Login
Location: Cuzcurrita-R�o Tir�n
(42.5415°N, 2.9642°W)
Time: 18:31:32
(UTC+00:00)
Language:

ISS - Orbit

View from above orbital plane
View from above orbital plane
View from above satellite
View from above satellite

Ground track
Ground track

The orbit data is extracted from the following two-line orbital elements,

1 25544U 98067A   21105.27684449  .00000230  00000-0  12373-4 0  9998
2 25544  51.6433 293.8873 0002789 229.1605 303.0390 15.48883950278843
Epoch (UTC): 15 April 2021 06:38:39
Eccentricity: 0.0002789
inclination: 51.6433°
perigee height: 418 km
apogee height: 422 km
right ascension of ascending node: 293.8873°
argument of perigee: 229.1605°
revolutions per day: 15.48883950
mean anomaly at epoch: 303.0390°
orbit number at epoch: 27884

The dashed part of the orbit path shows where the satellite is in the earth's shadow,  

DLR